Flag for Spain Weather past 2 weeks in Valladolid, Spain

Now
73 °F

Sunny.


Feels Like: 77 °F
Forecast: 56 / 78 °F
Wind: 5 mph from Northwest

Location: Valladolid / Villanubla

Current Time: Aug 21, 2014 at 2:49:18 PM

Latest Report: Aug 21, 2014 at 2:00 PM


Visibility: 10 mi

Pressure: 30.07 "Hg

Humidity: 41%

Dew point: 48 °F

Location of ValladolidLocation

Historic Weather in Valladolid — Graph

°F

Valladolid temperature yesterday

Maximum temperature yesterday: 79 °F (at 5:00 PM)
Minimum temperature yesterday: 48 °F (at 7:30 AM)
Average temperature yesterday: 69 °F

Past Weeks' High & Low Weather Summary

 TemperatureHumidityPressure
High88 °F (Aug 18, 3:30 PM)100% (Aug 11, 7:30 AM)30.27 "Hg (Aug 11, 7:30 AM)
Low45 °F (Aug 17, 7:30 AM)15% (Aug 17, 6:00 PM)29.86 "Hg (Aug 18, 4:30 PM)
Average71 °F46%30.06 "Hg
* Reported Aug 6 1:00 PM — Aug 21 1:30 PM, Valladolid, Weather by CustomWeather, © 2014

Note: Actual official high and low records may vary slightly from our data, if they occured in-between our weather recording intervals... More about our weather records

Advertising

Valladolid weather history for previous 24 hours

 ConditionsComfort  
Time TempWeatherWind HumidityBarometerVisibility
1:30 PM
Aug 21
73 °FPassing clouds.6 mph41%30.07 "HgN/A
1:00 PM72 °FSunny.1 mph47%30.07 "Hg10 mi
12:30 PM70 °FSunny.1 mph50%30.07 "Hg10 mi
12:00 PM66 °FSunny.2 mph56%30.07 "Hg10 mi
11:30 AM64 °FSunny.2 mph64%30.07 "Hg10 mi
11:00 AM63 °FPassing clouds.3 mph64%30.07 "HgN/A
10:30 AM59 °FPassing clouds.3 mph72%30.07 "HgN/A
10:00 AM57 °FPassing clouds.5 mph77%30.07 "HgN/A
9:30 AM55 °FPassing clouds.6 mph77%30.07 "HgN/A
9:00 AM54 °FSunny.6 mph88%30.07 "Hg10 mi
8:30 AM52 °FClear.6 mph88%30.07 "Hg10 mi
8:00 AM52 °FClear.3 mph88%30.07 "Hg10 mi
7:30 AM50 °FClear.5 mph94%30.07 "Hg10 mi
7:00 AM50 °FClear.2 mph94%30.07 "Hg10 mi
9:30 PM
Aug 20
73 °FSunny.2 mph31%30.04 "Hg10 mi
9:00 PM73 °FPassing clouds.1 mph29%30.04 "HgN/A
8:30 PM75 °FPassing clouds.2 mph29%30.04 "HgN/A
8:00 PM77 °FPassing clouds.5 mph28%30.04 "HgN/A
7:30 PM77 °FSunny.7 mph26%30.04 "Hg10 mi
7:00 PM79 °FSunny.3 mph24%30.04 "Hg10 mi
6:30 PM79 °FPassing clouds.5 mph26%30.04 "HgN/A
6:00 PM77 °FPassing clouds.8 mph28%30.04 "HgN/A
5:30 PM79 °FPassing clouds.9 mph26%30.04 "HgN/A
5:00 PM79 °FSunny.7 mph26%30.04 "Hg10 mi
4:30 PM77 °FPassing clouds.6 mph26%30.04 "HgN/A
4:00 PM77 °FPassing clouds.8 mph28%30.07 "HgN/A
3:30 PM75 °FSunny.5 mph29%30.07 "Hg10 mi
3:00 PM75 °FPassing clouds.7 mph31%30.07 "HgN/A
2:30 PM75 °FPassing clouds.6 mph34%30.07 "HgN/A
2:00 PM73 °FSunny.3 mph38%30.07 "Hg10 mi
Weather by CustomWeather, © 2014

See weather overviewHow to use our weather pages